Latest Weather Observations for Ulladulla

IDN60801

Issued at 9:35 pm EDT Friday 31 October 2014 (issued every 30 minutes, with the page automatically refreshed every 10 minutes)

About weather observations | Map of weather stations | Latest weather observations for NSW | Other Formats
Station Details ID: 069138 Name: ULLADULLA AWS Lat: -35.36 Lon: 150.48 Height: 35.7 m
Data from the previous 72 hours. | See also: Recent months at Ulladulla
Date/Time
EDT
Temp
°C
App
Temp
°C
Dew
Point
Rel
Hum
%
Delta-T
°C
Wind Press
QNH
hPa
Press
MSL
hPa
Rain
since 9 am
mm
Dir
 
Spd
km/h
Gust
km/h
Spd
kts
Gust
kts
31/09:30pm 21.0 20.3 15.3 70 3.4 N 13 17 7 9 1005.6 1005.5 0.0
31/09:00pm 21.8 21.1 15.4 67 3.8 N 13 19 7 10 1005.6 1005.5 0.0
31/08:30pm 22.2 21.2 15.5 66 4.0 N 15 19 8 10 1005.5 1005.4 0.0
31/08:00pm 21.2 21.5 17.0 77 2.6 N 11 17 6 9 1005.5 1005.4 0.0
31/07:30pm 21.0 21.4 17.2 79 2.3 N 11 17 6 9 1005.4 1005.3 0.0
31/07:00pm 21.1 21.4 17.1 78 2.5 NNE 11 17 6 9 1005.4 1005.3 0.0
31/06:30pm 21.6 22.0 17.2 76 2.7 N 11 17 6 9 1005.5 1005.4 0.0
31/06:00pm 21.4 22.1 17.0 76 2.7 NNE 9 17 5 9 1005.4 1005.3 0.0
31/05:30pm 21.6 22.4 17.2 76 2.7 NNE 9 15 5 8 1005.4 1005.3 0.0
31/05:00pm 21.6 22.5 17.6 78 2.5 NNE 9 20 5 11 1005.6 1005.5 0.0
31/04:30pm 21.9 22.0 17.5 76 2.7 NNE 13 28 7 15 1005.7 1005.6 0.0
31/04:00pm 21.8 21.9 18.4 81 2.1 NNE 15 22 8 12 1006.2 1006.1 0.0
31/03:30pm 21.4 22.9 18.8 85 1.6 NNE 9 15 5 8 1006.6 1006.5 0.0
31/03:00pm 21.3 21.6 18.7 85 1.6 NNE 15 24 8 13 1007.0 1006.9 0.0
31/02:30pm 20.7 20.5 17.7 83 1.9 NNE 15 22 8 12 1007.6 1007.5 0.0
31/02:00pm 20.7 21.0 17.9 84 1.7 NNE 13 24 7 13 1008.2 1008.1 0.0
31/01:30pm 20.3 20.3 17.3 83 1.8 NNE 13 20 7 11 1008.7 1008.6 0.0
31/01:00pm 20.1 20.1 17.3 84 1.7 NNE 13 19 7 10 1009.0 1008.9 0.0
31/12:30pm 20.0 20.3 17.0 83 1.8 NNE 11 19 6 10 1009.7 1009.6 0.0
31/12:00pm 20.2 20.8 16.8 81 2.1 NNE 9 17 5 9 1010.3 1010.2 0.0
31/11:30am 19.7 20.4 16.0 79 2.2 NNE 7 13 4 7 1011.3 1011.2 0.0
31/11:00am 19.6 19.9 16.1 80 2.1 NNE 9 15 5 8 1011.9 1011.8 0.0
31/10:30am 19.4 20.0 15.7 79 2.2 NNE 7 11 4 6 1012.5 1012.4 0.0
31/10:00am 19.2 19.5 15.1 77 2.4 NE 7 9 4 5 1012.9 1012.9 0.0
31/09:30am 19.3 20.0 15.6 79 2.2 S 6 7 3 4 1013.1 1013.1 0.0
31/09:00am 18.6 19.2 15.3 81 1.9 S 6 7 3 4 1013.2 1013.2 0.0
31/08:30am 18.7 19.4 15.6 82 1.8 S 6 7 3 4 1013.4 1013.4 0.0
31/08:00am 17.8 19.2 16.3 91 0.9 SW 4 6 2 3 1013.3 1013.3 0.0
31/07:30am 16.6 17.7 15.6 94 0.6 WSW 4 7 2 4 1013.1 1013.1 0.0
31/07:00am 15.8 16.7 15.0 95 0.5 W 4 6 2 3 1012.8 1012.8 0.0
31/06:30am 14.9 15.1 14.1 95 0.5 W 6 7 3 4 1012.7 1012.6 0.0
31/06:00am 14.5 14.5 13.5 94 0.6 W 6 7 3 4 1012.7 1012.6 0.0
31/05:30am 14.6 14.4 13.6 94 0.6 W 7 9 4 5 1012.5 1012.4 0.0
31/05:00am 14.7 14.5 13.6 93 0.6 W 7 9 4 5 1012.3 1012.2 0.0
31/04:30am 14.9 14.8 13.8 93 0.6 W 7 9 4 5 1012.4 1012.3 0.0
31/04:00am 15.4 15.6 14.3 93 0.6 W 6 7 3 4 1012.6 1012.5 0.0
31/03:30am 15.8 16.2 14.8 94 0.6 W 6 7 3 4 1012.9 1012.9 0.0
31/03:00am 15.7 16.0 14.6 93 0.6 W 6 9 3 5 1013.0 1013.0 0.0
31/02:30am 15.9 16.2 14.9 94 0.6 SW 7 11 4 6 1013.3 1013.3 0.0
31/02:00am 15.9 15.7 14.8 93 0.6 SW 9 15 5 8 1013.7 1013.7 0.0
31/01:30am 16.2 16.1 14.9 92 0.7 SW 9 15 5 8 1014.0 1014.0 0.0
31/01:00am 16.5 16.9 15.2 92 0.8 WSW 7 11 4 6 1014.4 1014.4 0.0
31/12:30am 15.4 14.7 13.2 87 1.2 W 9 13 5 7 1014.7 1014.7 0.0
31/12:00am 16.1 16.3 14.6 91 0.9 WSW 7 11 4 6 1014.9 1014.9 0.0
 
Date/Time
EDT
Temp
°C
App
Temp
°C
Dew
Point
Rel
Hum
%
Delta-T
°C
Wind Press
QNH
hPa
Press
MSL
hPa
Rain
since 9 am
mm
Dir
 
Spd
km/h
Gust
km/h
Spd
kts
Gust
kts
30/11:30pm 16.6 17.2 15.8 95 0.5 SSW 7 11 4 6 1015.0 1015.0 0.0
30/11:00pm 16.7 16.8 15.6 93 0.6 SSW 9 15 5 8 1015.0 1015.0 0.0
30/10:30pm 16.8 17.1 15.0 89 1.0 SSW 7 9 4 5 1014.8 1014.8 0.0
30/10:00pm 17.3 17.6 15.1 87 1.3 SSW 7 9 4 5 1014.7 1014.7 0.0
30/09:30pm 16.9 15.9 12.2 74 2.6 SSW 9 13 5 7 1014.4 1014.4 0.0
30/09:00pm 18.3 17.8 10.7 61 4.1 N 4 6 2 3 1013.9 1013.9 0.0
30/08:30pm 19.5 18.3 9.7 53 5.2 NNE 6 11 3 6 1013.3 1013.3 0.0
30/08:00pm 19.7 18.9 11.7 60 4.4 NNE 7 11 4 6 1012.9 1012.9 0.0
30/07:30pm 19.8 18.7 12.1 61 4.3 NNE 9 15 5 8 1012.4 1012.3 0.0
30/07:00pm 19.8 18.3 13.0 65 3.9 NNE 13 22 7 12 1011.9 1011.8 0.0
30/06:30pm 19.8 19.0 14.0 69 3.3 NNE 11 19 6 10 1011.6 1011.5 0.0
30/06:00pm 19.7 20.6 16.2 80 2.1 N 6 11 3 6 1011.6 1011.5 0.0
30/05:30pm 19.8 20.6 16.4 81 2.0 N 7 11 4 6 1011.4 1011.3 0.0
30/05:00pm 19.7 19.9 15.8 78 2.3 N 9 13 5 7 1011.2 1011.1 0.0
30/04:30pm 20.0 20.8 16.4 80 2.2 N 7 13 4 7 1011.3 1011.2 0.0
30/04:00pm 19.6 19.5 16.1 80 2.1 NNE 11 17 6 9 1011.2 1011.1 0.0
30/03:30pm 19.5 19.4 16.0 80 2.1 NNE 11 15 6 8 1011.3 1011.2 0.0
30/03:00pm 19.3 19.4 15.4 78 2.3 N 9 13 5 7 1011.7 1011.6 0.0
30/02:30pm 19.6 20.2 15.9 79 2.2 N 7 13 4 7 1011.9 1011.8 0.0
30/02:00pm 19.1 19.5 15.4 79 2.2 N 7 13 4 7 1012.3 1012.2 0.0
30/01:30pm 20.0 20.8 15.8 77 2.5 ENE 6 11 3 6 1012.6 1012.5 0.0
30/01:00pm 19.3 19.3 14.3 73 2.9 SSE 7 11 4 6 1013.0 1013.0 0.0
30/12:30pm 19.0 18.7 14.5 75 2.6 SSE 9 11 5 6 1013.5 1013.5 0.0
30/12:00pm 19.0 18.4 14.5 75 2.6 SSE 11 15 6 8 1013.7 1013.7 0.0
30/11:30am 19.0 18.6 15.1 78 2.3 SSE 11 15 6 8 1013.9 1013.9 0.0
30/11:00am 17.6 17.5 13.9 79 2.1 SSE 7 11 4 6 1014.3 1014.3 0.0
30/10:30am 17.7 17.2 13.8 78 2.2 SSE 9 11 5 6 1014.2 1014.2 0.0
30/10:00am 17.8 17.7 13.9 78 2.2 SSE 7 11 4 6 1014.4 1014.4 0.0
30/09:30am 17.8 17.8 14.1 79 2.1 SSE 7 11 4 6 1014.4 1014.4 0.0
30/09:00am 17.6 18.1 14.9 84 1.6 S 6 9 3 5 1014.6 1014.6 0.0
30/08:30am 16.9 17.0 14.5 86 1.4 S 7 9 4 5 1014.6 1014.6 0.0
30/08:00am 15.6 16.3 14.6 94 0.6 SW 4 6 2 3 1014.5 1014.5 0.0
30/07:30am 14.3 14.4 13.8 97 0.3 S 6 9 3 5 1014.4 1014.4 0.0
30/07:00am 14.4 15.6 13.9 97 0.3 CALM 0 0 0 0 1014.2 1014.2 0.0
30/06:30am 13.4 13.5 12.6 95 0.4 WNW 4 6 2 3 1014.0 1014.0 0.0
30/06:00am 13.2 13.9 12.3 94 0.5 CALM 0 0 0 0 1013.7 1013.7 0.0
30/05:30am 13.4 14.2 12.6 95 0.4 CALM 0 0 0 0 1013.6 1013.6 0.0
30/05:00am 13.5 13.8 12.2 92 0.7 WNW 2 4 1 2 1013.6 1013.6 0.0
30/04:30am 13.6 14.2 11.8 89 1.0 CALM 0 0 0 0 1013.7 1013.7 0.0
30/04:00am 13.7 14.3 11.8 88 1.0 CALM 0 0 0 0 1013.7 1013.7 0.0
30/03:30am 14.0 14.6 11.9 87 1.1 CALM 0 4 0 2 1013.9 1013.9 0.0
30/03:00am 14.5 15.2 12.2 86 1.2 CALM 0 0 0 0 1014.2 1014.2 0.0
30/02:30am 15.4 16.3 12.9 85 1.4 CALM 0 0 0 0 1014.4 1014.4 0.0
30/02:00am 16.1 16.4 13.4 84 1.5 WNW 4 7 2 4 1014.8 1014.8 0.0
30/01:30am 16.8 17.7 13.9 83 1.6 NW 2 4 1 2 1015.1 1015.1 0.0
30/01:00am 17.1 18.1 14.2 83 1.7 NNW 2 4 1 2 1015.4 1015.4 0.0
30/12:30am 17.2 17.8 14.3 83 1.7 NW 4 6 2 3 1015.7 1015.7 0.0
30/12:00am 17.3 17.5 14.2 82 1.8 NNW 6 9 3 5 1015.9 1015.9 0.0
 
Date/Time
EDT
Temp
°C
App
Temp
°C
Dew
Point
Rel
Hum
%
Delta-T
°C
Wind Press
QNH
hPa
Press
MSL
hPa
Rain
since 9 am
mm
Dir
 
Spd
km/h
Gust
km/h
Spd
kts
Gust
kts
29/11:30pm 17.4 17.6 14.3 82 1.8 NNW 6 7 3 4 1016.0 1016.0 0.0
29/11:00pm 17.7 17.5 14.6 82 1.8 N 9 11 5 6 1016.1 1016.1 0.0
29/10:30pm 17.7 18.2 15.0 84 1.6 NNW 6 11 3 6 1016.2 1016.2 0.0
29/10:00pm 17.6 15.8 14.5 82 1.8 NE 17 20 9 11 1016.2 1016.2 0.0
29/09:30pm 17.6 16.1 14.3 81 1.9 NE 15 24 8 13 1016.4 1016.4 0.0
29/09:00pm 17.6 15.3 14.1 80 2.0 NE 19 26 10 14 1016.4 1016.4 0.0
29/08:30pm 17.4 15.5 14.1 81 1.9 NNE 17 24 9 13 1016.2 1016.2 0.0
29/08:00pm 17.4 15.3 13.7 79 2.1 NNE 17 26 9 14 1016.1 1016.1 0.0
29/07:30pm 17.4 14.9 13.5 78 2.2 NNE 19 26 10 14 1015.9 1015.9 0.0
29/07:00pm 17.2 15.4 13.3 78 2.2 NNE 15 22 8 12 1015.7 1015.7 0.0
29/06:30pm 17.2 14.9 13.1 77 2.3 NNE 17 28 9 15 1015.5 1015.5 0.0
29/06:00pm 17.1 14.7 12.8 76 2.4 NNE 17 26 9 14 1015.5 1015.5 0.0
29/05:30pm 17.2 15.3 12.9 76 2.4 NE 15 22 8 12 1015.3 1015.3 0.0
29/05:00pm 17.3 15.3 12.8 75 2.5 NE 15 24 8 13 1015.3 1015.3 0.0
29/04:30pm 17.3 15.6 12.6 74 2.6 NE 13 24 7 13 1015.5 1015.5 0.0
29/04:00pm 17.4 15.7 12.5 73 2.7 NE 13 20 7 11 1015.6 1015.6 0.0
29/03:30pm 17.9 16.2 12.6 71 3.0 ENE 13 19 7 10 1015.7 1015.7 0.0
29/03:00pm 18.2 16.5 12.6 70 3.1 ENE 13 22 7 12 1016.0 1016.0 0.0
29/02:30pm 18.4 16.7 12.6 69 3.2 ENE 13 19 7 10 1016.2 1016.2 0.0
29/02:00pm 18.5 17.2 12.5 68 3.3 ENE 11 19 6 10 1016.4 1016.4 0.0
29/01:30pm 19.1 17.9 12.8 67 3.5 ENE 11 19 6 10 1016.7 1016.7 0.0
29/01:00pm 19.0 17.7 12.5 66 3.6 E 11 17 6 9 1016.8 1016.8 0.0
29/12:30pm 18.6 17.0 11.7 64 3.8 E 11 17 6 9 1017.2 1017.2 0.0
29/12:00pm 18.7 17.2 11.8 64 3.8 E 11 17 6 9 1017.4 1017.4 0.0
29/11:30am 18.6 17.1 11.9 65 3.7 E 11 17 6 9 1017.6 1017.6 0.0
29/11:00am 18.7 17.7 12.2 66 3.6 E 9 17 5 9 1017.8 1017.8 0.0
29/10:30am 18.4 17.0 12.2 67 3.4 SE 11 15 6 8 1017.8 1017.8 0.0
29/10:00am 17.9 16.7 11.7 67 3.4 E 9 13 5 7 1017.8 1017.8 0.0
29/09:30am 18.0 17.3 12.0 68 3.3 SSE 7 11 4 6 1017.7 1017.7 0.0
29/09:00am 18.0 17.5 12.2 69 3.2 SSE 6 7 3 4 1017.6 1017.6 0.2
29/08:30am 17.4 16.9 12.5 73 2.7 S 7 7 4 4 1017.5 1017.5 0.2
29/08:00am 16.4 16.1 12.8 79 2.0 SSE 6 9 3 5 1017.2 1017.2 0.2
29/07:30am 16.2 16.8 13.1 82 1.7 SE 2 6 1 3 1017.0 1017.0 0.2
29/07:00am 15.7 15.4 12.6 82 1.7 SSW 6 9 3 5 1016.7 1016.7 0.2
29/06:30am 15.9 15.6 12.8 82 1.7 SE 6 9 3 5 1016.2 1016.2 0.2
29/06:00am 16.1 16.3 13.0 82 1.7 SE 4 7 2 4 1015.7 1015.7 0.2
29/05:30am 16.4 16.6 12.9 80 1.9 ESE 4 11 2 6 1015.1 1015.1 0.0
29/05:00am 16.4 16.0 12.9 80 1.9 ESE 7 13 4 7 1014.6 1014.6 0.0
29/04:30am 16.4 15.6 12.9 80 1.9 SE 9 15 5 8 1014.4 1014.4 0.0
29/04:00am 15.8 13.8 7.3 57 4.2 SW 7 13 4 7 1014.0 1014.0 0.0
29/03:30am 15.6 13.6 7.1 57 4.2 W 7 15 4 8 1013.6 1013.6 0.0
29/03:00am 16.1 13.7 7.1 55 4.5 W 9 15 5 8 1013.2 1013.2 0.0
29/02:30am 16.4 13.9 6.5 52 4.9 W 9 15 5 8 1013.0 1013.0 0.0
29/02:00am 16.8 14.3 6.6 51 5.0 WNW 9 19 5 10 1013.0 1013.0 0.0
29/01:30am 16.9 14.4 6.4 50 5.2 WNW 9 15 5 8 1013.0 1013.0 0.0
29/01:00am 16.6 14.5 8.1 57 4.3 NW 9 13 5 7 1013.3 1013.3 0.0
29/12:30am 15.8 14.5 10.1 69 3.0 NW 7 9 4 5 1013.4 1013.4 0.0
29/12:00am 15.7 15.3 12.3 80 1.9 NNW 6 7 3 4 1013.4 1013.4 0.0
 
Date/Time
EDT
Temp
°C
App
Temp
°C
Dew
Point
Rel
Hum
%
Delta-T
°C
Wind Press
QNH
hPa
Press
MSL
hPa
Rain
since 9 am
mm
Dir
 
Spd
km/h
Gust
km/h
Spd
kts
Gust
kts
28/11:30pm 15.6 15.5 12.2 80 1.9 NNE 4 6 2 3 1013.3 1013.3 0.0
28/11:00pm 16.3 16.6 12.3 77 2.2 E 2 7 1 4 1013.2 1013.2 0.0
28/10:30pm 16.9 17.1 12.0 73 2.7 SSW 2 4 1 2 1012.9 1012.9 0.0
28/10:00pm 17.6 16.9 10.0 61 4.0 S 4 6 2 3 1012.6 1012.5 0.0

Other Formats:

Comma delimited format used in spreadsheet applications
http://www.bom.gov.au/fwo/IDN60801/IDN60801.94938.axf

JavaScript Object Notation format (JSON) in row-major order
http://www.bom.gov.au/fwo/IDN60801/IDN60801.94938.json